Location: Contre
(49.7477°N, 2.0963°E)
Time: 13:17:41
(UTC+00:00)

Meteor 2-12 Rocket - Pass Details

Date: 11 August 2024
Orbit: 936 x 956 km, 82.5° (Epoch: 14 September)

Event Time Altitude Azimuth Distance (km) Brightness Sun altitude
Rises 23:22:32 0° 354° (N) 3,613 8.9 -24.9°
Reaches altitude 10° 23:25:18 10° 4° (N) 2,667 7.8 -25.0°
Maximum altitude 23:30:47 34° 68° (ENE) 1,517 5.6 -25.1°
Enters shadow 23:32:57 27° 106° (ESE) 1,750 5.6 -25.2°
